period_start,C,m1,H,J0,J1,J2,J3,J4,J5,JA,JB,JC,JD,JJ,JK,JN,#
2015-12-31 00:03:02,0.25,4.35,0.00,20.79,23.95,27.80,14.78,51.41,1028.26,2044.86,2182.15,2138.94,2386.15,599.94,607.33,45.68,0000 0000 0000 0000 000000
2015-12-31 00:08:04,0.30,4.37,0.00,20.78,23.95,27.76,14.85,51.35,1028.33,2044.76,2178.51,2136.37,2383.33,600.03,607.55,45.73,0000 0000 0000 0000 000000
2015-12-31 00:13:05,0.32,4.39,0.00,20.80,23.95,27.74,14.78,51.25,1028.29,2044.84,2174.69,2133.67,2380.34,599.78,607.25,45.78,0000 0000 0000 0000 000000
2015-12-31 00:18:06,0.29,4.40,0.00,20.80,23.95,27.77,14.87,51.21,1028.32,2044.73,2171.06,2131.06,2377.45,599.93,607.48,45.83,0000 0000 0000 0000 000000
2015-12-31 00:23:07,0.27,4.41,0.00,20.80,23.96,27.74,14.87,51.35,1028.27,2044.57,2167.63,2128.59,2374.80,600.27,607.50,45.88,0000 0000 0000 0000 000000
2015-12-31 00:28:08,0.28,4.43,0.00,20.78,23.96,27.75,14.81,51.46,1028.30,2044.44,2164.12,2126.16,2372.11,599.49,606.91,45.93,0000 0000 0000 0000 000000
2015-12-31 00:33:10,0.25,4.44,0.00,20.79,23.96,27.79,14.85,51.34,1028.29,2044.29,2160.99,2123.95,2369.68,600.26,607.60,45.99,0000 0000 0000 0000 000000
2015-12-31 00:38:11,0.22,4.45,0.00,20.78,23.97,27.73,14.79,51.34,1028.27,2044.25,2158.27,2122.00,2367.59,599.67,607.09,46.04,0000 0000 0000 0000 000000
2015-12-31 00:43:12,0.22,4.47,0.00,20.78,23.97,27.80,14.80,51.31,1028.25,2044.42,2155.79,2120.32,2365.76,600.11,607.49,46.09,0000 0000 0000 0000 000000
2015-12-31 00:48:14,0.16,4.48,0.00,20.79,23.97,27.78,14.89,51.49,1028.32,2044.41,2153.70,2118.76,2364.06,600.05,607.48,46.14,0000 0000 0000 0000 000000
2015-12-31 00:53:15,0.15,4.48,0.00,20.78,23.97,27.77,14.83,51.36,1028.29,2044.26,2151.70,2117.35,2362.48,600.08,607.62,46.19,0000 0000 0000 0000 000000
2015-12-31 00:58:16,0.16,4.49,0.00,20.78,23.97,27.79,14.82,51.49,1028.30,2044.17,2149.74,2115.92,2360.91,599.75,607.30,46.24,0000 0000 0000 0000 000000
2015-12-31 01:03:17,0.14,4.50,0.00,20.76,23.96,27.82,14.90,51.52,1028.31,2044.18,2148.11,2114.71,2359.63,600.24,607.78,46.29,0000 0000 0000 0000 000000
2015-12-31 01:08:19,0.12,4.50,0.00,20.75,23.95,27.81,14.91,51.48,1028.24,2044.09,2146.65,2113.71,2358.36,600.51,608.00,46.34,0000 0000 0000 0000 000000
2015-12-31 01:13:20,0.09,4.51,0.00,20.74,23.95,27.79,14.81,51.42,1027.97,2044.10,2145.38,2112.87,2357.32,600.10,607.43,46.39,0000 0000 0000 0000 000000
2015-12-31 01:18:21,0.08,4.52,0.00,20.75,23.95,27.84,14.85,51.38,1028.20,2044.05,2144.44,2112.03,2356.41,600.06,607.49,46.44,0000 0000 0000 0000 000000
2015-12-31 01:23:22,0.09,4.52,0.00,20.73,23.95,27.79,14.87,51.49,1028.16,2044.06,2143.49,2111.21,2355.85,600.31,607.76,46.49,0000 0000 0000 0000 000000
2015-12-31 01:28:24,0.06,4.52,0.00,20.72,23.95,27.81,14.83,51.39,1027.98,2044.04,2142.47,2110.86,2354.98,600.00,607.38,46.54,0000 0000 0000 0000 000000
2015-12-31 01:33:25,0.10,4.53,0.00,20.71,23.94,27.75,14.89,51.37,1028.13,2044.06,2141.39,2110.06,2354.11,600.25,607.68,46.59,0000 0000 0000 0000 000000
2015-12-31 01:38:26,0.11,4.54,0.00,20.70,23.92,27.80,14.90,51.49,1028.15,2044.13,2140.32,2109.26,2353.19,600.36,607.89,46.64,0000 0000 0000 0000 000000
2015-12-31 01:43:28,0.07,4.54,0.00,20.70,23.92,27.74,14.89,51.53,1028.07,2044.10,2139.39,2108.76,2352.47,600.48,607.94,46.69,0000 0000 0000 0000 000000
2015-12-31 01:48:29,0.07,4.54,0.00,20.68,23.92,27.78,14.89,51.39,1028.02,2044.13,2138.50,2108.03,2351.96,599.96,607.41,46.74,0000 0000 0000 0000 000000
2015-12-31 01:53:31,0.09,4.55,0.00,20.68,23.91,27.76,14.85,51.49,1027.94,2044.19,2137.73,2107.38,2351.12,600.14,607.64,46.79,0000 0000 0000 0000 000000
2015-12-31 01:58:32,0.04,4.55,0.00,20.69,23.90,27.75,14.85,51.48,1027.92,2044.21,2137.06,2106.99,2350.56,600.14,607.53,46.84,0000 0000 0000 0000 000000
2015-12-31 02:03:33,0.09,4.55,0.00,20.67,23.90,27.76,14.83,51.42,1027.87,2044.26,2136.10,2106.24,2349.89,600.26,607.69,46.90,0000 0000 0000 0000 000000
2015-12-31 02:08:34,0.28,4.57,0.00,20.65,23.90,27.78,14.84,51.48,1027.85,2044.38,2133.69,2104.23,2347.57,600.07,607.51,46.95,0000 0000 0000 0000 000000
2015-12-31 02:13:35,0.14,4.58,0.00,20.65,23.88,27.73,14.82,51.42,1027.85,2044.68,2132.28,2102.92,2346.30,599.79,607.24,47.00,0000 0000 0000 0000 000000
2015-12-31 02:18:37,0.09,4.58,0.00,20.65,23.87,27.73,14.80,51.45,1027.85,2044.48,2130.82,2101.92,2345.12,599.53,606.98,47.05,0000 0000 0000 0000 000000
2015-12-31 02:23:38,0.15,4.59,0.00,20.62,23.87,27.76,14.82,51.42,1027.87,2044.51,2129.21,2100.84,2343.87,599.77,607.31,47.10,0000 0000 0000 0000 000000
2015-12-31 02:28:39,0.14,4.60,0.00,20.61,23.87,27.73,14.87,51.43,1027.86,2044.72,2127.73,2099.88,2342.77,600.04,607.58,47.15,0000 0000 0000 0000 000000
2015-12-31 02:33:40,0.12,4.60,0.00,20.60,23.86,27.76,14.87,51.37,1027.86,2044.83,2126.41,2099.00,2341.82,599.86,607.33,47.20,0000 0000 0000 0000 000000
2015-12-31 02:38:41,0.10,4.61,0.00,20.60,23.85,27.69,14.85,51.30,1027.86,2044.87,2125.27,2098.12,2341.00,599.56,607.21,47.25,0000 0000 0000 0000 000000
2015-12-31 02:43:43,0.09,4.61,0.00,20.59,23.85,27.73,14.87,51.47,1027.85,2044.94,2124.41,2097.63,2340.15,599.84,607.50,47.30,0000 0000 0000 0000 000000
2015-12-31 02:48:44,0.07,4.62,0.00,20.55,23.85,27.73,14.92,51.46,1027.86,2044.94,2123.48,2096.96,2339.47,600.27,607.93,47.35,0000 0000 0000 0000 000000
2015-12-31 02:53:45,0.08,4.62,0.00,20.55,23.85,27.73,14.83,51.41,1027.86,2044.92,2122.50,2096.15,2338.74,600.06,607.68,47.40,0000 0000 0000 0000 000000
2015-12-31 02:58:47,0.08,4.62,0.00,20.56,23.84,27.71,14.85,51.47,1027.86,2044.93,2121.59,2095.54,2338.01,600.26,607.78,47.45,0000 0000 0000 0000 000000
2015-12-31 03:03:48,0.06,4.63,0.00,20.54,23.83,27.70,14.88,51.48,1027.87,2044.92,2120.63,2094.93,2337.18,600.35,608.03,47.50,0000 0000 0000 0000 000000
2015-12-31 03:08:49,0.09,4.63,0.00,20.53,23.82,27.68,14.84,51.40,1027.86,2044.94,2119.77,2094.09,2336.52,599.96,607.72,47.55,0000 0000 0000 0000 000000
2015-12-31 03:13:50,0.08,4.64,0.00,20.52,23.82,27.75,14.86,51.41,1027.85,2044.97,2118.91,2093.55,2335.76,600.15,607.84,47.60,0000 0000 0000 0000 000000
2015-12-31 03:18:51,0.08,4.64,0.00,20.52,23.82,27.71,14.85,51.51,1027.86,2044.97,2117.77,2092.85,2334.94,599.48,607.16,47.65,0000 0000 0000 0000 000000
2015-12-31 03:23:52,0.10,4.65,0.00,20.50,23.81,27.69,14.96,51.53,1027.85,2044.97,2116.71,2092.04,2334.06,600.25,608.01,47.70,0000 0000 0000 0000 000000
2015-12-31 03:28:54,0.09,4.65,0.00,20.50,23.80,27.70,14.85,51.49,1027.85,2044.97,2115.78,2091.24,2333.19,600.07,607.85,47.76,0000 0000 0000 0000 000000
2015-12-31 03:33:55,0.11,4.66,0.00,20.50,23.80,27.62,14.87,51.43,1027.85,2044.98,2114.64,2090.44,2332.31,600.03,607.88,47.81,0000 0000 0000 0000 000000
2015-12-31 03:38:56,0.06,4.66,0.00,20.50,23.80,27.66,14.84,51.58,1027.85,2044.99,2113.75,2089.86,2331.52,599.70,607.45,47.86,0000 0000 0000 0000 000000
2015-12-31 03:43:57,0.07,4.67,0.00,20.50,23.79,27.68,14.84,51.47,1027.85,2044.99,2113.00,2089.07,2330.80,600.04,607.89,47.91,0000 0000 0000 0000 000000
2015-12-31 03:48:59,0.08,4.67,0.00,20.49,23.78,27.63,14.78,51.48,1027.86,2044.99,2112.05,2088.52,2329.99,599.66,607.44,47.96,0000 0000 0000 0000 000000
2015-12-31 03:54:00,0.09,4.67,0.00,20.48,23.77,27.64,14.89,51.42,1027.86,2044.98,2110.97,2087.74,2329.12,599.89,607.67,48.01,0000 0000 0000 0000 000000
2015-12-31 03:59:02,0.07,4.68,0.00,20.47,23.77,27.64,14.92,51.42,1027.88,2044.99,2110.12,2087.01,2328.43,600.29,608.12,48.06,0000 0000 0000 0000 000000
2015-12-31 04:04:03,0.10,4.68,0.00,20.47,23.76,27.65,14.88,51.42,1027.87,2044.99,2109.24,2086.29,2327.62,600.04,607.88,48.11,0000 0000 0000 0000 000000
2015-12-31 04:09:04,0.09,4.69,0.00,20.45,23.75,27.65,14.82,51.43,1027.87,2044.99,2108.21,2085.54,2326.76,599.98,607.83,48.16,0000 0000 0000 0000 000000
2015-12-31 04:14:05,0.07,4.69,0.00,20.43,23.74,27.59,14.90,51.51,1027.87,2044.99,2107.04,2084.79,2325.90,599.85,607.73,48.21,0000 0000 0000 0000 000000
2015-12-31 04:19:07,0.09,4.70,0.00,20.43,23.72,27.60,14.88,51.46,1027.94,2044.99,2105.97,2083.93,2324.93,600.13,608.19,48.26,0000 0000 0000 0000 000000
2015-12-31 04:24:08,0.10,4.70,0.00,20.41,23.71,27.58,14.84,51.27,1027.99,2045.00,2104.97,2083.05,2323.97,599.77,607.80,48.31,0000 0000 0000 0000 000000
2015-12-31 04:29:09,0.11,4.71,0.00,20.39,23.70,27.55,14.83,51.38,1028.07,2045.00,2103.86,2082.21,2323.05,599.96,607.99,48.36,0000 0000 0000 0000 000000
2015-12-31 04:34:10,0.11,4.71,0.00,20.38,23.70,27.58,14.85,51.31,1027.93,2045.01,2102.74,2081.33,2322.11,600.15,608.18,48.41,0000 0000 0000 0000 000000
2015-12-31 04:39:12,0.10,4.72,0.00,20.37,23.69,27.57,14.88,51.33,1027.86,2045.01,2101.63,2080.55,2321.16,599.71,607.57,48.46,0000 0000 0000 0000 000000
2015-12-31 04:44:13,0.11,4.72,0.00,20.38,23.67,27.56,14.81,51.34,1027.86,2045.03,2100.48,2079.67,2320.22,599.87,607.86,48.51,0000 0000 0000 0000 000000
2015-12-31 04:49:14,0.11,4.73,0.00,20.38,23.67,27.57,14.82,51.52,1027.86,2045.03,2099.19,2078.60,2319.16,599.87,607.92,48.56,0000 0000 0000 0000 000000
2015-12-31 04:54:15,0.12,4.74,0.00,20.35,23.66,27.55,14.93,51.51,1027.85,2045.02,2097.85,2077.68,2318.12,600.26,608.10,48.61,0000 0000 0000 0000 000000
2015-12-31 04:59:17,0.11,4.74,0.00,20.35,23.65,27.54,14.75,51.35,1027.86,2045.06,2096.67,2076.75,2317.14,599.75,607.89,48.66,0000 0000 0000 0000 000000
2015-12-31 05:04:18,0.10,4.75,0.00,20.32,23.65,27.50,14.86,51.31,1027.85,2045.12,2095.54,2075.88,2316.12,600.00,608.12,48.71,0000 0000 0000 0000 000000
2015-12-31 05:09:19,0.12,4.75,0.00,20.32,23.64,27.49,14.80,51.51,1027.85,2045.17,2094.20,2074.93,2315.04,599.85,607.98,48.77,0000 0000 0000 0000 000000
2015-12-31 05:14:20,0.13,4.76,0.00,20.30,23.63,27.51,14.88,51.38,1027.85,2045.47,2093.06,2074.00,2314.02,600.13,608.32,48.82,0000 0000 0000 0000 000000
2015-12-31 05:19:21,0.12,4.77,0.00,20.29,23.62,27.51,14.90,51.33,1027.85,2045.53,2092.06,2073.10,2313.05,599.91,608.01,48.87,0000 0000 0000 0000 000000
2015-12-31 05:24:22,0.10,4.77,0.00,20.28,23.62,27.49,14.83,51.33,1027.85,2045.56,2091.23,2072.37,2312.14,599.41,607.51,48.92,0000 0000 0000 0000 000000
2015-12-31 05:29:24,0.08,4.78,0.00,20.29,23.62,27.49,14.90,51.48,1027.85,2045.69,2090.41,2071.83,2311.48,600.11,608.28,48.97,0000 0000 0000 0000 000000
2015-12-31 05:34:25,0.11,4.78,0.00,20.28,23.61,27.49,14.84,51.71,1027.84,2045.73,2089.26,2070.94,2310.53,599.98,608.22,49.02,0000 0000 0000 0000 000000
2015-12-31 05:39:26,0.11,4.79,0.00,20.28,23.60,27.47,14.86,51.62,1027.85,2045.79,2088.19,2070.05,2309.64,600.18,608.44,49.07,0000 0000 0000 0000 000000
2015-12-31 05:44:28,0.12,4.79,0.00,20.27,23.60,27.50,14.86,51.53,1027.85,2045.86,2087.06,2069.16,2308.67,599.79,608.03,49.12,0000 0000 0000 0000 000000
2015-12-31 05:49:29,0.10,4.80,0.00,20.26,23.60,27.43,14.90,51.58,1027.85,2045.84,2085.95,2068.22,2307.70,599.99,608.23,49.17,0000 0000 0000 0000 000000
2015-12-31 05:54:30,0.13,4.81,0.00,20.23,23.60,27.45,14.89,51.63,1027.85,2045.88,2084.77,2067.32,2306.69,600.21,608.48,49.22,0000 0000 0000 0000 000000
2015-12-31 05:59:32,0.11,4.81,0.00,20.24,23.59,27.45,14.90,51.63,1027.85,2045.95,2083.63,2066.47,2305.71,600.06,608.37,49.27,0000 0000 0000 0000 000000
2015-12-31 06:04:33,0.10,4.81,0.00,20.24,23.57,27.44,14.86,51.43,1027.85,2045.93,2082.55,2065.56,2304.77,600.16,608.45,49.32,0000 0000 0000 0000 000000
2015-12-31 06:09:35,0.08,4.82,0.00,20.24,23.57,27.44,14.90,51.49,1027.85,2045.97,2081.49,2064.81,2303.87,600.10,608.25,49.37,0000 0000 0000 0000 000000
2015-12-31 06:14:36,0.09,4.83,0.00,20.23,23.57,27.43,14.90,51.38,1027.85,2045.96,2080.44,2063.97,2303.03,600.04,608.34,49.42,0000 0000 0000 0000 000000
2015-12-31 06:19:37,0.10,4.83,0.00,20.22,23.55,27.40,14.80,51.41,1027.85,2045.96,2079.29,2063.11,2302.17,599.84,608.07,49.47,0000 0000 0000 0000 000000
2015-12-31 06:24:38,0.11,4.84,0.00,20.21,23.55,27.38,14.89,51.52,1027.85,2045.97,2078.22,2062.32,2301.32,600.36,608.72,49.52,0000 0000 0000 0000 000000
2015-12-31 06:29:40,0.07,4.84,0.00,20.21,23.55,27.38,14.83,51.58,1027.85,2045.98,2077.46,2061.74,2300.55,600.01,608.53,49.57,0000 0000 0000 0000 000000
2015-12-31 06:34:41,0.06,4.85,0.00,20.20,23.54,27.43,14.92,51.58,1027.85,2045.98,2076.63,2061.01,2299.91,599.84,608.18,49.63,0000 0000 0000 0000 000000
2015-12-31 06:39:42,0.08,4.85,0.00,20.21,23.54,27.42,14.78,51.42,1027.85,2045.98,2075.93,2060.30,2299.08,599.60,607.96,49.68,0000 0000 0000 0000 000000
2015-12-31 06:44:43,0.06,4.85,0.00,20.22,23.53,27.41,14.83,51.53,1027.86,2045.98,2075.11,2059.97,2298.48,599.54,607.85,49.73,0000 0000 0000 0000 000000
2015-12-31 06:49:44,0.08,4.86,0.00,20.19,23.52,27.44,14.88,51.57,1027.88,2045.98,2074.40,2059.19,2297.97,600.20,608.54,49.78,0000 0000 0000 0000 000000
2015-12-31 06:54:46,0.05,4.86,0.00,20.18,23.52,27.35,14.82,51.54,1027.93,2045.98,2073.75,2058.87,2297.17,599.26,607.74,49.83,0000 0000 0000 0000 000000
